Effective Sunday, March 17, 2024, the National Weather Service National Data Buoy Center will discontinue its Dial-A-Buoy Interactive Voice Response system. For more information, see Service Change Notice 24-06 (PDF).

Station 44018 (LLNR 560) - CAPE COD - 9 NM North of Provincetown, MA Image indicating link to RSS feed of recent meteorological observations for station 44018


Conditions at 44018 as of
(5:50 pm EST)
2250 GMT on 02/24/2024:
     

Click on the graph icon in the table below to see a time series plot of the last five days of that observation.

5-day plot - Wind Direction Wind Direction (WDIR): NW ( 320 deg true )
5-day plot - Wind Speed Wind Speed (WSPD): 19.4 kts
5-day plot - Wind Gust Wind Gust (GST): 23.3 kts
5-day plot - Wave Height Wave Height (WVHT): 5.2 ft
5-day plot - Dominant Wave Period Dominant Wave Period (DPD): 6 sec
5-day plot - Average Wave Period Average Period (APD): 4.9 sec
5-day plot - Mean Wave Direction Mean Wave Direction (MWD):NNE ( 21 deg true )
5-day plot - Atmospheric Pressure Atmospheric Pressure (PRES):29.75 in
5-day plot - Air Temperature Air Temperature (ATMP): 34.3 °F
5-day plot - Water Temperature Water Temperature (WTMP): 39.7 °F
5-day plot - Dew Point Dew Point (DEWP): 14.0 °F
5-day plot - Wind Chill Wind Chill (CHILL): 22.5 °F
5-day plot - Wind Speed at 10 Meters Wind Speed at 10 meters (WSPD10M): 21.4 kts
5-day plot - Wind Speed at 20 Meters Wind Speed at 20 meters (WSPD20M): 21.4 kts
5-day plot -  Wind Speed, Wind Gust and Atmospheric Pressure Combined plot of Wind Speed, Gust, and Air Pressure
Supplemental Measurements
Highest 1-minute Wind Speed
Time (EST)5-day plot - 1-Minute Wind Speed WSPD 5-day plot - 1-Minute Wind Direction WDIR
5:48 pm 21.4 kts-
Previous observations
TIME
(EST)
5-day plot - Wind Direction
WDIR
 
5-day plot - Wind Speed
WSPD
kts
5-day plot - Wind Gust
GST
kts
5-day plot - Wave Height
WVHT
ft
5-day plot - Dominant Wave Period
DPD
sec
5-day plot - Average Wave Period
APD
sec
5-day plot - Mean Wave Direction
MWD
 
5-day plot - Atmospheric Pressure
PRES
in
5-day plot - Pressure Tendency
PTDY
in
5-day plot - Air Temperature
ATMP
°F
5-day plot - Water Temperature
WTMP
°F
5-day plot - Dew Point
DEWP
°F
5-day plot - Salinity
SAL
psu
5-day plot - Visibility
VIS
nmi
5-day plot - Tide (above MLLW)
TIDE
ft
2024-02-24 05:40 pm NW 17.5 23.3----29.75- 34.7 39.7 15.8---
2024-02-24 05:30 pm NW 19.4 23.3----29.73- 34.7 39.7 14.5---
2024-02-24 05:20 pmNNW 17.5 21.4 5.2 65.0NNE29.73- 34.9 39.7 17.1---
2024-02-24 05:10 pmNNW 17.5 21.4 5.2-5.0NNE29.72- 34.9 39.7 16.2---
2024-02-24 05:00 pm NW 15.5 19.4----29.72+0.09 35.1 39.7 15.6---
2024-02-24 04:50 pm NW 15.5 19.4 4.9 65.0NNE29.71- 34.9 39.7 15.6---
2024-02-24 04:40 pm NW 15.5 19.4----29.71- 34.9 39.7 16.9---
2024-02-24 04:30 pm NW 15.5 19.4----29.71- 34.7 39.7 16.0---
2024-02-24 04:20 pm NW 15.5 21.4 4.9 65.0NNE29.70- 34.7 39.7 15.8---
2024-02-24 04:10 pm NW 15.5 19.4 4.9-5.0NNE29.69- 34.7 39.7 16.7---
2024-02-24 04:00 pm NW 15.5 19.4----29.68+0.11 34.5 39.7 17.1---
2024-02-24 03:50 pm NW 15.5 21.4 5.6 54.9NNE29.68- 34.3 39.7 16.7---
2024-02-24 03:40 pm NW 15.5 19.4----29.67- 34.3 39.7 16.9---
2024-02-24 03:30 pm NW 15.5 19.4----29.67- 34.5 39.9 18.1---
2024-02-24 03:20 pmNNW 15.5 19.4 5.6 64.9NNE29.67- 34.3 39.9 18.5---
2024-02-24 03:10 pmNNW 15.5 19.4----29.66- 34.2 39.9 17.8---
2024-02-24 03:00 pm NW 17.5 21.4----29.65+0.10 34.3 39.9 17.1---
2024-02-24 02:50 pm NW 17.5 21.4 5.6 64.8 NE29.65- 34.3 39.9 16.9---
2024-02-24 02:40 pmNNW 17.5 21.4----29.64- 34.5 40.1 18.1---
2024-02-24 02:30 pm NW 17.5 21.4----29.64- 34.5 40.1 17.2---
2024-02-24 02:20 pmNNW 17.5 23.3 5.6 54.8NNW29.62- 34.7 40.1 19.2---
2024-02-24 02:10 pm NW 17.5 23.3 5.6-4.8NNW29.62- 34.7 40.1 20.3---
2024-02-24 02:00 pm NW 17.5 21.4----29.62+0.07 34.7 40.1 20.3---
2024-02-24 01:50 pmNNW 19.4 23.3 5.6 64.8 NE29.61- 34.7 40.1 20.8---
2024-02-24 01:40 pm NW 19.4 25.3----29.60- 34.7 40.1 21.4---
2024-02-24 01:30 pm NW 19.4 25.3----29.59- 34.9 40.1 23.4---
2024-02-24 01:20 pm NW 19.4 25.3 5.2 54.8 N29.58- 35.2 40.1 24.4---
2024-02-24 01:10 pm NW 19.4 23.3 5.2-4.8 N29.58- 35.4 40.1 25.7---
2024-02-24 01:00 pm NW 19.4 25.3----29.57+0.00 35.4 40.3 26.4---
2024-02-24 12:50 pm NW 17.5 23.3 5.6 54.7NNE29.57- 35.6 40.3 26.8---
2024-02-24 12:40 pm NW 17.5 23.3----29.57- 35.6 40.3 27.0---
2024-02-24 12:30 pm NW 19.4 25.3----29.56- 35.6 40.3 27.0---
2024-02-24 12:20 pm NW 21.4 25.3 5.6 64.7 N29.56- 35.6 40.3 27.0---
2024-02-24 12:10 pm NW 23.3 27.2 5.6-4.7 N29.55- 35.6 40.3 27.3---
2024-02-24 12:00 pm NW 21.4 27.2----29.55+0.01 36.0 40.3 28.6---
2024-02-24 11:50 am NW 23.3 27.2 5.2 54.8 N29.56- 36.0 40.3 29.1---
2024-02-24 11:40 amNNW 21.4 25.3----29.55- 36.1 40.3 30.0---
2024-02-24 11:30 amNNW 21.4 25.3----29.55- 36.3 40.3 29.8---
2024-02-24 11:20 amNNW 21.4 25.3 5.2 54.5NNW29.55- 36.5 40.3 29.7---
2024-02-24 11:10 am NW 21.4 25.3 5.2-4.5NNW29.55- 36.5 40.3 29.7---
2024-02-24 11:00 am NW 21.4 27.2----29.55+0.06 36.5 40.3 30.4---
2024-02-24 10:50 am NW 19.4 25.3 4.6 54.4 N29.55- 37.0 40.3 31.6---
2024-02-24 10:40 amNNW 19.4 25.3----29.55- 37.2 40.3 32.0---
2024-02-24 10:30 am NW 19.4 25.3----29.57- 37.6 40.3 33.3---
2024-02-24 10:20 amNNW 19.4 23.3 4.6 54.6 N29.57- 37.8 40.3 34.0---
2024-02-24 10:10 amNNW 19.4 23.3----29.57- 38.1 40.3 34.9---
2024-02-24 10:00 amNNW 19.4 23.3----29.57+0.13 38.5 40.3 35.4---
2024-02-24 09:50 amNNW 17.5 21.4 4.3 54.5 N29.56- 38.7 40.3 35.2---
2024-02-24 09:40 amNNW 15.5 21.4----29.56- 39.0 40.1 35.1---
2024-02-24 09:30 am N 17.5 21.4----29.56- 39.0 40.1 34.3---
2024-02-24 09:20 am N 17.5 21.4 4.3 54.5NNE29.56- 39.2 40.1 35.1---
2024-02-24 09:10 amNNW 17.5 21.4 4.3-4.5NNE29.55- 39.2 40.1 35.8---
2024-02-24 09:00 amNNW 17.5 23.3----29.54+0.12 39.4 40.1 36.1---
2024-02-24 08:50 amNNW 17.5 23.3 3.9 84.5 E29.54- 39.4 40.1 36.3---
2024-02-24 08:40 amNNW 19.4 25.3----29.53- 39.4 39.9 36.5---
2024-02-24 08:30 amNNW 17.5 23.3----29.52- 39.7 39.9 37.0---
2024-02-24 08:20 amNNW 17.5 23.3 4.3 74.5ESE29.51- 39.7 39.9 36.9---
2024-02-24 08:10 amNNW 17.5 21.4 4.3-4.5ESE29.50- 39.6 39.9 36.9---
2024-02-24 08:00 amNNW 17.5 23.3----29.49+0.07 39.4 39.9 36.7---
2024-02-24 07:50 amNNW 19.4 23.3 4.6 54.5NNE29.48- 39.2 39.9 36.7---
2024-02-24 07:40 amNNW 19.4 23.3----29.46- 39.0 39.9 36.9---
2024-02-24 07:30 amNNW 19.4 23.3----29.45- 39.0 39.9 37.0---
2024-02-24 07:20 amNNW 17.5 21.4 4.3 74.5ESE29.45- 39.0 39.9 37.0---
2024-02-24 07:10 amNNW 17.5 21.4 4.3-4.5ESE29.45- 39.0 39.9 37.2---
2024-02-24 07:00 amNNW 17.5 21.4----29.44+0.05 38.8 39.9 37.2---
2024-02-24 06:50 amNNW 17.5 21.4 4.3 94.7 E29.44- 38.5 39.7 37.2---
2024-02-24 06:40 amNNW 17.5 21.4----29.43- 38.3 39.7 37.4---
2024-02-24 06:30 amNNW 17.5 23.3----29.43- 38.3 39.7 37.4---
2024-02-24 06:20 amNNW 17.5 23.3 4.6 104.8 E29.42- 38.3 39.7 37.6---
2024-02-24 06:10 amNNW 17.5 21.4 4.6-4.8 E29.43- 38.3 39.7 37.6---
2024-02-24 06:00 amNNW 19.4 23.3----29.42+0.03 38.1 39.7 37.4---
2024-02-24 05:50 amNNW 19.4 23.3 4.6 104.8 E29.41- 38.1 39.7 37.6---
2024-02-24 05:40 amNNW 19.4 23.3----29.42- 38.1 39.7 37.4---
2024-02-24 05:30 amNNW 19.4 25.3----29.42- 38.1 39.7 37.4---
2024-02-24 05:20 amNNW 19.4 23.3 4.6 104.7ENE29.42- 38.1 39.7 37.6---
2024-02-24 05:10 amNNW 19.4 23.3 4.6-4.7ENE29.43- 38.1 39.7 37.8---
2024-02-24 05:00 amNNW 19.4 23.3----29.42+0.04 38.1 39.7 37.8---
2024-02-24 04:50 amNNW 17.5 23.3 4.3 104.7 E29.43- 38.1 39.7 37.8---
2024-02-24 04:40 amNNW 19.4 23.3----29.42- 38.1 39.7 37.8---
2024-02-24 04:30 amNNW 19.4 23.3----29.41- 38.1 39.7 37.9---
2024-02-24 04:20 amNNW 17.5 21.4 4.6 104.8 E29.40- 38.1 39.7 37.9---
2024-02-24 04:10 amNNW 17.5 21.4 4.6-4.8 E29.39- 38.3 39.7 38.1---
2024-02-24 04:00 amNNW 17.5 21.4----29.39+0.01 38.5 39.7 38.1---
2024-02-24 03:50 am N 17.5 21.4 4.3 104.7 E29.38- 38.5 39.7 38.1---
2024-02-24 03:40 am N 17.5 21.4----29.38- 38.5 39.7 38.1---
2024-02-24 03:30 am N 15.5 19.4----29.37- 38.5 39.7 38.1---
2024-02-24 03:20 am N 15.5 19.4 4.6 114.9 E29.39- 38.5 39.7 38.3---
2024-02-24 03:10 am N 15.5 17.5 4.6-4.9 E29.39- 38.5 39.7 38.3---
2024-02-24 03:00 am N 15.5 19.4----29.39+0.00 38.5- 38.1---
2024-02-24 02:50 am N 17.5 19.4 4.3 104.8 E29.39- 38.7 39.9 38.1---
2024-02-24 02:40 am N 17.5 21.4----29.39- 38.8- 38.1---
2024-02-24 02:30 am N 17.5 21.4----29.38- 38.7 39.9 37.8---
2024-02-24 02:20 am N 17.5 21.4 4.3 104.9 E29.37- 38.8- 38.1---
2024-02-24 02:10 am N 17.5 21.4 4.3-4.9 E29.38- 38.8 39.9 37.9---
2024-02-24 02:00 am N 17.5 21.4----29.38+0.00 38.8- 37.9---
2024-02-24 01:50 am N 17.5 21.4 3.9 104.9 E29.38- 39.0 39.9 38.1---
2024-02-24 01:40 am N 17.5 23.3----29.37- 39.0 39.9 38.1---
2024-02-24 01:30 amNNW 15.5 21.4----29.37- 39.0 39.9 38.5---
2024-02-24 01:20 am N 17.5 21.4 4.3 105.2 E29.36- 39.2 39.9 38.8---
2024-02-24 01:10 am N 15.5 19.4 4.3-5.2 E29.37- 39.2 39.9 38.8---
2024-02-24 01:00 am N 15.5 17.5----29.37-0.04 39.2 39.9 38.7---
2024-02-24 12:50 am N 15.5 17.5 3.9 115.3 E29.37- 39.2 39.9 38.7---
2024-02-24 12:40 am N 15.5 19.4----29.37- 39.2 39.9 38.7---
2024-02-24 12:30 am N 13.6 17.5----29.38- 39.2 39.9 38.8---
2024-02-24 12:20 am N 13.6 15.5 3.9 95.4ESE29.39- 39.2 39.9 38.8---
2024-02-24 12:10 am N 13.6 15.5 3.9-5.4ESE29.39- 39.2 39.9 38.8---
2024-02-24 12:00 am N 13.6 17.5----29.39-0.05 39.0 39.9 38.7---
2024-02-23 11:50 pm N 13.6 17.5 3.9 115.3 E29.39- 39.0 39.9 38.7---
2024-02-23 11:40 pm N 13.6 17.5----29.39- 39.0 39.9 38.7---
2024-02-23 11:30 pm N 15.5 19.4----29.38- 39.2 39.9 39.0---
2024-02-23 11:20 pm N 15.5 19.4 3.9 115.6 E29.38- 39.0 39.9 38.8---
2024-02-23 11:10 pm N 15.5 17.5 3.9-5.6 E29.38- 39.0 39.9 39.0---
2024-02-23 11:00 pm N 15.5 17.5----29.38-0.06 39.0 39.9 39.0---
2024-02-23 10:50 pm N 13.6 17.5 3.9 115.7 E29.39- 39.2 39.9----
2024-02-23 10:40 pm N 13.6 15.5----29.40- 39.2 39.9----
2024-02-23 10:30 pm N 13.6 17.5----29.40- 39.2 39.9----
2024-02-23 10:20 pm N 13.6 15.5 3.6 116.1 E29.40- 39.2 39.9----
2024-02-23 10:10 pm N 13.6 15.5 3.6-6.1 E29.41- 39.4 39.9----
2024-02-23 10:00 pm N 11.7 13.6----29.41-0.03 39.4 39.9----
2024-02-23 09:50 pm N 11.7 13.6 3.9 106.7ESE29.42- 39.4 39.9----
2024-02-23 09:40 pm N 11.7 15.5 3.9-6.7ESE29.42- 39.4 39.9----
2024-02-23 09:30 pm N 11.7 15.5----29.43- 39.4 39.9----
2024-02-23 09:20 pm N 11.7 13.6 3.6 106.4 E29.43- 39.6 39.9----
2024-02-23 09:10 pm N 11.7 13.6----29.44- 39.6 39.9----
2024-02-23 09:00 pm N 11.7 13.6----29.44-0.02 39.6 39.9----
2024-02-23 08:50 pm N 9.7 11.7----29.44- 39.6 39.9----
2024-02-23 08:40 pm N 7.8 9.7----29.45- 39.6 39.9----
2024-02-23 08:30 pm-------29.45-- 39.9----
2024-02-23 08:20 pm N 7.8 7.8----29.45- 39.6 39.7----
2024-02-23 08:10 pm N 5.8 7.8----29.45- 39.6 39.7----
2024-02-23 08:00 pm N 7.8 9.7----29.45-0.01 39.6 39.9----
2024-02-23 07:50 pm N 7.8 9.7 3.9 116.3 E29.44- 39.6 39.9----
2024-02-23 07:40 pm N 7.8 9.7----29.44- 39.6 39.9----
2024-02-23 07:30 pmNNE 7.8 9.7----29.44- 39.6 39.9----
2024-02-23 07:20 pmNNE 7.8 9.7 3.9 116.2 E29.44- 39.7 39.9----
2024-02-23 07:10 pmNNE 7.8 11.7 3.9-6.2 E29.44- 39.7 40.1----
2024-02-23 07:00 pmNNE 7.8 11.7----29.44-0.02 39.7 40.1----
2024-02-23 06:50 pmNNE 7.8 9.7 4.3 106.5 E29.45- 39.7 40.1----
2024-02-23 06:40 pmNNE 7.8 9.7----29.45- 39.9 40.1----
2024-02-23 06:10 pm N 7.8 9.7 4.9-7.1 E29.46- 39.9 40.1----
2024-02-23 06:00 pm N 7.8 9.7----29.46+0.00 39.9 40.1----
2024-02-23 05:50 pmNNE 5.8 7.8 5.2 117.2 E29.46- 39.9 39.9----

Detailed Wave Summary
for 44018 as of (5:40 pm EST)
2240 GMT on 02/24/2024:

These wave data are displayed in rounded times.

     

Click on the graph icon in the table below to see a time series plot of the last five days of that observation.

5-day plot - Significant Wave Height Significant Wave Height (WVHT): 5.2 ft
5-day plot - Swell Height Swell Height (SwH): 3.3 ft
5-day plot - Swell Period Swell Period (SwP): 9.1 sec
5-day plot - Swell Direction Swell Direction (SwD): E
5-day plot - Wind Wave Height Wind Wave Height (WWH): 3.9 ft
5-day plot - Wind Wave Period Wind Wave Period (WWP): 6.2 sec
5-day plot - Wind Wave Direction Wind Wave Direction (WWD):NNE
5-day plot - Wave Steepness Wave Steepness (STEEPNESS): STEEP
5-day plot - Average Wave Period Average Wave Period (APD): 4.9 sec
Previous observations
TIME
(EST)
5-day plot - Wave Height
WVHT
ft
5-day plot - Swell Height
SwH
ft
5-day plot - Swell Period
SwP
sec
5-day plot - Swell Direction
SwD
 
5-day plot - Wind Wave Height
WWH
ft
5-day plot - Wind Wave Period
WWP
sec
5-day plot - Wind Wave Direction
WWD
 
5-day plot - Wave Steepness
STEEPNESS
 
5-day plot - Average Wave Period
APD
sec
2024-02-24 05:10 pm 5.2 2.6 10.0 E 4.6 5.9 NNEVERY_STEEP 5.0
2024-02-24 04:40 pm 4.9 2.6 10.0ESE 4.3 5.6 NNEVERY_STEEP 5.0
2024-02-24 04:10 pm 4.9 2.6 10.0ESE 4.3 6.2 NNE STEEP 5.0
2024-02-24 03:40 pm 5.6 3.0 9.1ESE 4.9 5.3 NNEVERY_STEEP 4.9
2024-02-24 03:10 pm 5.6 3.0 10.0 E 4.9 5.6 NNEVERY_STEEP 4.9
2024-02-24 02:40 pm 5.6 2.3 10.0 E 4.9 6.2 NEVERY_STEEP 4.8
2024-02-24 02:10 pm 5.6 2.3 10.0 E 5.2 5.0 NNWVERY_STEEP 4.8
2024-02-24 01:40 pm 5.6 2.6 9.1ESE 4.9 6.2 NEVERY_STEEP 4.8
2024-02-24 01:10 pm 5.2 2.3 11.4ESE 4.6 5.3 NVERY_STEEP 4.8
2024-02-24 12:40 pm 5.6 2.3 11.4 E 4.9 5.3 NNEVERY_STEEP 4.7
2024-02-24 12:10 pm 5.6 2.3 10.8 E 4.9 5.6 NVERY_STEEP 4.7
2024-02-24 11:40 am 5.2 2.6 10.0ENE 4.6 5.0 NVERY_STEEP 4.8
2024-02-24 11:10 am 5.2 2.0 10.8 E 4.6 4.8 NNWVERY_STEEP 4.5
2024-02-24 10:40 am 4.6 2.0 10.8ESE 4.3 4.5 NVERY_STEEP 4.4
2024-02-24 10:10 am 4.6 2.3 10.8ESE 3.9 5.0 NVERY_STEEP 4.6
2024-02-24 09:40 am 4.3 2.3 9.1ESE 3.6 4.8 NVERY_STEEP 4.5
2024-02-24 09:10 am 4.3 2.3 9.1ESE 3.9 5.0 NNEVERY_STEEP 4.5
2024-02-24 08:40 am 3.9 2.3 7.7 E 3.3 4.5 NNE AVERAGE 4.5
2024-02-24 08:10 am 4.3 2.6 7.1ESE 3.3 4.5 N AVERAGE 4.5
2024-02-24 07:40 am 4.6 2.6 10.8 E 3.6 4.5 NNEVERY_STEEP 4.5
2024-02-24 07:10 am 4.3 2.3 7.1ESE 3.3 4.5 NNE AVERAGE 4.5
2024-02-24 06:40 am 4.3 2.6 9.1 E 3.3 6.7 ESE AVERAGE 4.7
2024-02-24 06:10 am 4.6 3.0 10.0 E 3.6 4.8 NNE AVERAGE 4.8
2024-02-24 05:40 am 4.6 3.0 10.0 E 3.6 4.3 N AVERAGE 4.8
2024-02-24 05:10 am 4.6 3.0 10.0ENE 3.3 4.3 NNE AVERAGE 4.7
2024-02-24 04:40 am 4.3 3.0 10.0 E 3.3 6.2 ESE AVERAGE 4.7
2024-02-24 04:10 am 4.6 3.3 10.0 E 3.0 4.0 NNE SWELL 4.8
2024-02-24 03:40 am 4.3 3.0 10.0 E 3.0 4.0 N SWELL 4.7
2024-02-24 03:10 am 4.6 3.3 10.8 E 3.0 3.8 N SWELL 4.9
2024-02-24 02:40 am 4.3 3.0 10.0 E 3.0 4.0 N SWELL 4.8
2024-02-24 02:10 am 4.3 3.3 10.0 E 2.6 3.7 N SWELL 4.9
2024-02-24 01:40 am 3.9 3.3 10.0 E 2.6 3.3- SWELL 4.9
2024-02-24 01:10 am 4.3 3.6 10.0 E 2.6 3.6 N SWELL 5.2
2024-02-24 12:40 am 3.9 3.3 10.8 E 2.3 5.6 E SWELL 5.3
2024-02-24 12:10 am 3.9 3.3 9.1ESE 2.3 5.6 ESE SWELL 5.4
2024-02-23 11:40 pm 3.9 3.3 10.8 E 2.3 5.3 ESE SWELL 5.3
2024-02-23 11:10 pm 3.9 3.6 10.8 E 2.0 4.8 ESE SWELL 5.6
2024-02-23 10:40 pm 3.9 3.6 10.8 E 1.6 5.3 SE SWELL 5.7
2024-02-23 10:10 pm 3.6 3.3 10.8 E 2.0 5.9 ESE SWELL 6.1
2024-02-23 09:40 pm 3.9 3.6 10.0ESE 1.3 4.3 ESE SWELL 6.7
2024-02-23 09:10 pm 3.6 3.3 10.0 E 1.3 4.5 SE SWELL 6.4
2024-02-23 07:40 pm 3.9 3.9 10.8 E 1.0 3.8 SE SWELL 6.3
2024-02-23 07:10 pm 3.9 3.9 11.4 E 1.0 4.0 SE SWELL 6.2
2024-02-23 06:40 pm 4.3 3.9 10.0 E 1.0 3.7 SE SWELL 6.5
2024-02-23 06:10 pm 4.9 4.9 10.8 E 1.0 3.3 ESE SWELL 7.1

Plot of wave energy versus frequency (and period)